Regional Weather Roundup
Issued by NWS

Home | Current Version | Previous Version | Text Only | Print | Product List | Glossary On
Versions: 1 2 3 4 5 6 7 8 9 10 11 12 13 14 15 16 17 18 19 20 21 22 23 24 25 26 27 28 29 30 31 32 33 34 35 36 37 38 39 40 41 42 43 44 45 46 47 48 49 50
000
ASUS45 KBOI 282010
RWRID
WEATHER ROUNDUP FOR IDAHO
NATIONAL WEATHER SERVICE BOISE ID
100 PM MST FRI NOV 28 2014

NOTE: "FAIR" INDICATES FEW OR NO CLOUDS BELOW 12000 FEET
WITH NO SIGNIFICANT WEATHER AND/OR OBSTRUCTIONS TO VISIBILITY

IDZ012-014-282100-
SOUTHWEST IDAHO


CITY           SKY/WX    TMP DP  RH WIND       PRES   REMARKS
BOISE          PTSUNNY   63  26  24 S10       29.74F
CALDWELL       NOT AVBL
MOUNTAIN HOME  CLOUDY    58  37  45 E9        29.77F
$$

IDZ016-017-282100-
SOUTHCENTRAL IDAHO


CITY           SKY/WX    TMP DP  RH WIND       PRES   REMARKS
BURLEY         CLOUDY    57  20  23 S17G25    29.82F
JEROME         CLOUDY    53  28  38 SE6       29.82F
TWIN FALLS     CLOUDY    59  21  23 S14       29.81F
$$

IDZ019>023-282100-
SOUTHEAST IDAHO


CITY           SKY/WX    TMP DP  RH WIND       PRES   REMARKS
IDAHO FALLS    CLOUDY    53  29  39 S14       29.82F
POCATELLO      SUNNY     59  20  22 S16G24    29.84F
REXBURG        PTSUNNY   51  24  34 SW18G31   29.80F
$$

IDZ006-010-011-018-031-032-282100-
CENTRAL IDAHO MOUNTAINS


CITY           SKY/WX    TMP DP  RH WIND       PRES   REMARKS
MCCALL         CLOUDY    40  32  73 SW5       29.72F
HAILEY         PTSUNNY   48  21  34 S9        29.84F
STANLEY          N/A     47  18  31 S3        29.79F
SALMON         CLOUDY    57  27  30 SW18G28   29.63F
CHALLIS        MOSUNNY   54  23  30 SW7       29.72F
$$

IDZ002-004-006-007-026-282100-
NORTHERN IDAHO


CITY           SKY/WX    TMP DP  RH WIND       PRES   REMARKS
LEWISTON       LGT RAIN  59  39  47 SW23G40   29.51F
LOWELL           N/A     43  41  93 VRB5      29.64F
COEUR D`ALENE  CLOUDY    54  41  62 SW25G41   29.44F
MULLAN PASS    RAIN      34  34 100 S14G32    29.47F FOG     WCI  25
$$


USA.gov is the U.S. government's official web portal to all federal, state and local government web resources and services.